Satellite-Ground Cal/Val Region Overpasses Predictions

Prediction of Satellite NPP Overpassing Cal/Val Region: PacNW

Region Location: (Latitude: 10.00, Longitude: 139.50) to (Latitude: 22.70, Longitude: 165.60).

Table of predicted overpasses for the next 14.0 days since TLE Epoch: 1/5/2019
Interval Starting Time Starting Location Ending Time Ending Location
1 01/05/2019 15:30:35 ( 22.66, 152.25) 01/05/2019 15:34:10 ( 10.04, 149.25)
2 01/06/2019 02:39:40 ( 10.03, 159.78) 01/06/2019 02:43:15 ( 22.66, 156.78)
3 01/06/2019 15:11:32 ( 22.68, 157.01) 01/06/2019 15:15:08 ( 10.00, 154.00)
4 01/07/2019 02:20:37 ( 10.01, 164.54) 01/07/2019 02:24:13 ( 22.70, 161.53)
5 01/07/2019 14:52:31 ( 22.64, 161.76) 01/07/2019 14:56:06 ( 10.02, 158.76)
6 01/08/2019 03:43:05 ( 10.00, 143.93) 01/08/2019 03:46:41 ( 22.68, 140.91)
7 01/08/2019 14:34:32 ( 18.91, 165.60) 01/08/2019 14:37:03 ( 10.04, 163.52)
8 01/08/2019 16:14:58 ( 22.66, 141.15) 01/08/2019 16:16:53 ( 15.91, 139.51)
9 01/09/2019 03:24:03 ( 10.04, 148.68) 01/09/2019 03:27:38 ( 22.66, 145.68)
10 01/09/2019 15:55:56 ( 22.68, 145.91) 01/09/2019 15:59:31 ( 10.06, 142.91)
11 01/10/2019 03:05:01 ( 10.02, 153.44) 01/10/2019 03:08:36 ( 22.64, 150.44)
12 01/10/2019 15:36:53 ( 22.70, 150.67) 01/10/2019 15:40:29 ( 10.02, 147.66)
13 01/11/2019 02:45:58 ( 10.00, 158.20) 01/11/2019 02:49:34 ( 22.68, 155.19)
14 01/11/2019 15:17:52 ( 22.66, 155.42) 01/11/2019 15:21:27 ( 10.04, 152.42)
15 01/12/2019 02:26:57 ( 10.04, 162.95) 01/12/2019 02:30:32 ( 22.66, 159.95)
16 01/12/2019 14:58:50 ( 22.68, 160.18) 01/12/2019 15:02:26 ( 10.00, 157.17)
17 01/13/2019 02:10:28 ( 19.07, 165.59) 01/13/2019 02:11:29 ( 22.64, 164.71)
18 01/13/2019 03:49:24 ( 10.03, 142.34) 01/13/2019 03:52:47 ( 21.95, 139.51)
19 01/13/2019 14:39:47 ( 22.70, 164.95) 01/13/2019 14:43:23 ( 10.02, 161.93)
20 01/13/2019 16:21:17 ( 22.69, 139.57) 01/13/2019 16:21:21 ( 22.46, 139.51)
21 01/14/2019 03:30:22 ( 10.01, 147.10) 01/14/2019 03:33:58 ( 22.69, 144.08)
22 01/14/2019 16:02:16 ( 22.65, 144.32) 01/14/2019 16:05:51 ( 10.03, 141.32)
23 01/15/2019 03:11:20 ( 10.05, 151.85) 01/15/2019 03:14:55 ( 22.67, 148.85)
24 01/15/2019 15:43:13 ( 22.67, 149.08) 01/15/2019 15:46:48 ( 10.05, 146.08)
25 01/16/2019 02:52:18 ( 10.03, 156.61) 01/16/2019 02:55:53 ( 22.65, 153.61)
26 01/16/2019 15:24:11 ( 22.69, 153.84) 01/16/2019 15:27:47 ( 10.01, 150.83)
27 01/17/2019 02:33:15 ( 10.01, 161.37) 01/17/2019 02:36:51 ( 22.69, 158.36)
28 01/17/2019 15:05:09 ( 22.65, 158.59) 01/17/2019 15:08:44 ( 10.03, 155.59)
29 01/18/2019 02:14:53 ( 12.34, 165.59) 01/18/2019 02:17:49 ( 22.68, 163.12)
30 01/18/2019 03:55:43 ( 10.00, 140.76) 01/18/2019 03:57:15 ( 15.41, 139.51)
31 01/18/2019 14:46:07 ( 22.67, 163.36) 01/18/2019 14:49:42 ( 10.05, 160.35)


NCC Satellite Cal/Val Overpasses Prediction Service
